Location: Fort Frances
(48.6170°N, 93.4170°W)
Time: 23:34:09
(UTC-05:00)

ISS - All Passes

Search period start: 26 May 2016 00:00
Search period end: 05 June 2016 00:00
Orbit: 402 x 404 km, 51.6° (Epoch: 26 May)

Date Brightness Start Highest point End Pass type
(mag) Time Alt. Az. Time Alt. Az. Time Alt. Az.
26 May - 00:33:33 10° WSW 00:36:49 75° NNW 00:40:05 10° ENE visible
26 May - 02:10:20 10° WNW 02:13:31 47° N 02:16:41 10° ENE visible
26 May - 03:46:52 10° WNW 03:50:10 89° NE 03:53:26 10° ESE visible
26 May - 05:23:47 10° W 05:26:17 20° SW 05:28:45 10° S daylight
26 May - 22:05:55 10° S 22:08:02 16° SE 22:10:09 10° E visible
26 May - 23:40:48 10° WSW 23:44:03 77° SSE 23:47:20 10° ENE visible
27 May - 01:17:28 10° W 01:20:39 48° N 01:23:50 10° ENE visible
27 May - 02:54:07 10° WNW 02:57:23 66° NNE 03:00:38 10° E visible
27 May - 04:30:43 10° W 04:33:42 32° SW 04:36:39 10° SSE visible
27 May - 22:48:11 10° SW 22:51:21 49° SSE 22:54:32 10° ENE visible
28 May - 00:24:36 10° W 00:27:49 54° N 00:31:03 10° ENE visible
28 May - 02:01:20 10° WNW 02:04:33 53° N 02:07:46 10° E visible
28 May - 03:37:51 10° WNW 03:41:02 53° SSW 03:44:13 10° SE visible
28 May - 05:16:25 10° SW 05:16:52 10° SW 05:17:20 10° SW daylight
28 May - 21:55:47 10° SSW 21:58:43 30° SE 22:01:38 10° E visible
28 May - 23:31:44 10° W 23:34:59 69° NNW 23:38:16 10° ENE visible
29 May - 01:08:31 10° WNW 01:11:43 47° N 01:14:53 10° E visible
29 May - 02:45:02 10° WNW 02:48:19 82° SSW 02:51:35 10° ESE visible
29 May - 04:22:07 10° W 04:24:23 17° SW 04:26:37 10° S visible
29 May - 21:03:45 10° S 21:06:07 19° SE 21:08:30 10° E daylight
29 May - 22:38:56 10° WSW 22:42:12 86° SSE 22:45:29 10° ENE visible
30 May - 00:15:39 10° WNW 00:18:51 47° N 00:22:01 10° ENE visible
30 May - 01:52:16 10° WNW 01:55:32 72° NNE 01:58:48 10° ESE visible
30 May - 03:28:56 10° W 03:31:48 28° SW 03:34:39 10° SSE visible
30 May - 20:12:34 10° SSE 20:13:36 11° SE 20:14:38 10° ESE daylight
30 May - 21:46:16 10° SW 21:49:28 56° SSE 21:52:41 10° ENE visible
30 May - 23:22:46 10° W 23:25:58 52° N 23:29:11 10° ENE visible
31 May - 00:59:29 10° WNW 01:02:43 56° NNE 01:05:57 10° E visible
31 May - 02:36:00 10° WNW 02:39:10 46° SSW 02:42:17 10° SE visible
31 May - 20:53:47 10° SSW 20:56:47 35° SSE 20:59:49 10° E daylight
31 May - 22:29:53 10° W 22:33:08 64° NNW 22:36:24 10° ENE visible
01 Jun - 00:06:40 10° WNW 00:09:51 48° N 00:13:03 10° E visible
01 Jun - 01:43:10 10° WNW 01:46:26 73° SSW 01:49:41 10° ESE visible
01 Jun - 03:20:28 10° W 03:22:25 15° SW 03:24:23 10° S visible
01 Jun - 20:01:36 10° SSW 20:04:10 22° SE 20:06:45 10° E daylight
01 Jun - 21:37:02 10° WSW 21:40:19 86° NNW 21:43:36 10° ENE daylight
01 Jun - 23:13:48 10° WNW 23:16:59 47° N 23:20:09 10° ENE visible
02 Jun - 00:50:23 10° WNW 00:53:40 79° NNE 00:56:56 10° ESE visible
02 Jun - 02:27:08 10° W 02:29:51 24° SW 02:32:34 10° SSE visible
02 Jun - 19:10:00 10° SSE 19:11:37 13° SE 19:13:14 10° ESE daylight
02 Jun - 20:44:19 10° SW 20:47:33 65° SSE 20:50:48 10° ENE daylight
02 Jun - 22:20:54 10° W 22:24:06 50° N 22:27:18 10° ENE visible
02 Jun - 23:57:35 10° WNW 00:00:50 60° NNE 00:04:04 10° E visible
03 Jun - 01:34:08 10° WNW 01:37:13 39° SSW 01:40:17 10° SE visible
03 Jun - 19:51:45 10° SW 19:54:50 40° SSE 19:57:56 10° ENE daylight
03 Jun - 21:28:00 10° W 21:31:14 59° NNW 21:34:29 10° ENE daylight
03 Jun - 23:04:45 10° WNW 23:07:58 50° N 23:11:10 10° E visible
04 Jun - 00:41:16 10° WNW 00:44:31 64° SSW 00:47:44 10° SE visible
04 Jun - 02:18:52 10° WSW 02:20:26 13° SW 02:21:59 10° SSW visible
04 Jun - 18:59:26 10° SSW 19:02:11 25° SE 19:04:56 10° E daylight
04 Jun - 20:35:07 10° WSW 20:38:23 78° NNW 20:41:41 10° ENE daylight
04 Jun - 22:11:54 10° WNW 22:15:04 47° N 22:18:16 10° ENE visible
04 Jun - 23:48:27 10° WNW 23:51:44 86° NNE 23:55:00 10° ESE visible
